Weather History for Jonesboro, AR

Change the Weather History Date:

Saturday, September 28, 2013

  Actual Average Record
Temperature  
Mean Temperature 75 °F 67 °F  
Max Temperature 88 °F 79 °F 97 °F (1953)
Min Temperature 61 °F 55 °F 39 °F (1909)
Degree Days  
Heating Degree Days 0 2  
Month to date heating degree days 0 14  
Since 1 July heating degree days 0 14  
Cooling Degree Days 10 4  
Month to date cooling degree days 353 217  
Year to date cooling degree days 1953 1763  
Growing Degree Days 24 (Base 50)    
Moisture  
Dew Point 62 °F    
Average Humidity 67    
Maximum Humidity 90    
Minimum Humidity 43    
Precipitation  
Precipitation 0.00 in 0.13 in 2.00 in (1906)
Month to date precipitation 1.19 2.78  
Year to date precipitation 38.64 33.89  
Snow  
Snow 0.00 in 0.00 in 0.00 in (2002)
Month to date snowfall 0.0 0.0  
Since 1 July snowfall 0.0 0.0  
Since 1 September snowfall 0.0 0.0  
Snow Depth 0.00 in    
Sea Level Pressure  
Sea Level Pressure 30.03 in    
Wind  
Wind Speed 8 mph (South)    
Max Wind Speed 18 mph    
Max Gust Speed 26 mph    
Visibility 10 miles    
Events      
T = Trace of Precipitation, MM = Missing Value Source: NWS Daily Summary

Daily Weather History Graph

Daily Weather History Graph

Search for Another Location

Airport:

Trip Planner

Search our weather history database for the weather conditions in past years. The results will help you decide how hot, cold, wet, or windy it might be!

Date:

Astronomy

Sep. 28, 2013 Rise Set
Actual Time 6:55 AM CDT 6:50 PM CDT
Civil Twilight 6:29 AM CDT 7:15 PM CDT
Nautical Twilight 6:00 AM CDT 7:45 PM CDT
Astronomical Twilight 5:30 AM CDT 8:15 PM CDT
Moon 12:53 AM CDT 3:00 PM CDT
Length of Visible Light 12h 45m
Length of Day
11h 54m
Waning Crescent, 36% of the Moon is Illuminated
Sep 28
Waning Crescent
Oct 4
New
Oct 11
First Quarter
Oct 18
Full
Oct 26
Last Quarter

Hourly Weather History & Observations

Time (CDT) Temp. Heat Index Dew Point Humidity Pressure Visibility Wind Dir Wind Speed Gust Speed Precip Events Conditions
12:53 AM 66.9 °F - 63.0 °F 87% 30.02 in 10.0 mi Calm Calm - N/A   Clear
1:53 AM 68.0 °F - 62.1 °F 81% 30.01 in 10.0 mi Calm Calm - N/A   Clear
2:53 AM 66.0 °F - 61.0 °F 84% 30.01 in 10.0 mi Calm Calm - N/A   Scattered Clouds
3:53 AM 64.0 °F - 60.1 °F 87% 30.02 in 10.0 mi Calm Calm - N/A   Clear
4:53 AM 62.1 °F - 59.0 °F 90% 30.03 in 10.0 mi Calm Calm - N/A   Clear
5:53 AM 63.0 °F - 59.0 °F 87% 30.04 in 10.0 mi Calm Calm - N/A   Scattered Clouds
6:53 AM 64.0 °F - 60.1 °F 87% 30.06 in 10.0 mi Calm Calm - 0.01 in   Clear
7:53 AM 66.9 °F - 63.0 °F 87% 30.07 in 10.0 mi SSE 3.5 mph - N/A   Scattered Clouds
8:53 AM 71.1 °F - 63.0 °F 75% 30.08 in 10.0 mi South 11.5 mph - N/A   Overcast
9:53 AM 75.0 °F - 63.0 °F 66% 30.09 in 10.0 mi South 9.2 mph - N/A   Mostly Cloudy
10:53 AM 80.1 °F 81.2 °F 62.1 °F 54% 30.10 in 10.0 mi South 11.5 mph - N/A   Overcast
11:53 AM 84.0 °F 84.4 °F 61.0 °F 46% 30.08 in 10.0 mi South 18.4 mph 23.0 mph N/A   Mostly Cloudy
12:53 PM 86.0 °F 86.3 °F 62.1 °F 44% 30.06 in 10.0 mi South 16.1 mph 23.0 mph N/A   Partly Cloudy
1:53 PM 87.1 °F 87.8 °F 63.0 °F 44% 30.03 in 10.0 mi South 15.0 mph 20.7 mph N/A   Clear
2:53 PM 87.1 °F 87.8 °F 63.0 °F 44% 30.00 in 10.0 mi South 15.0 mph 19.6 mph N/A   Partly Cloudy
3:53 PM 87.1 °F 87.5 °F 62.1 °F 43% 29.99 in 10.0 mi South 12.7 mph - N/A   Clear
4:53 PM 86.0 °F 86.3 °F 62.1 °F 44% 29.98 in 10.0 mi SSW 13.8 mph - N/A   Clear
5:53 PM 84.0 °F 84.4 °F 61.0 °F 46% 29.98 in 10.0 mi South 10.4 mph - N/A   Clear
6:53 PM 80.1 °F 81.2 °F 62.1 °F 54% 29.98 in 10.0 mi SSE 4.6 mph - N/A   Mostly Cloudy
7:53 PM 77.0 °F - 62.1 °F 60% 29.99 in 10.0 mi SSE 5.8 mph - N/A   Partly Cloudy
8:53 PM 75.9 °F - 62.1 °F 62% 30.01 in 10.0 mi SSE 5.8 mph - N/A   Clear
9:53 PM 75.0 °F - 62.1 °F 64% 30.02 in 10.0 mi South 4.6 mph - N/A   Clear
10:53 PM 73.9 °F - 62.1 °F 66% 30.02 in 10.0 mi South 9.2 mph - N/A   Clear
11:53 PM 73.9 °F - 61.0 °F 64% 30.01 in 10.0 mi South 10.4 mph - N/A   Mostly Cloudy